Regional Weather Roundup
Issued by NWS

Home | Current Version | Previous Version | Graphics & Text | Print | Product List | Glossary On
Versions: 1 2 3 4 5 6 7 8 9 10 11 12 13 14 15 16 17 18 19 20 21 22 23 24 25 26 27
000
ASUS45 KCYS 281510
RWRWY

WYOMING REGIONAL WEATHER ROUNDUP
NATIONAL WEATHER SERVICE CHEYENNE WY
900 AM MDT THU JUL 28 2016

NOTE:  "FAIR" INDICATES FEW OR NO CLOUDS BELOW 12,000 FEET
WITH NO SIGNIFICANT WEATHER AND/OR OBSTRUCTIONS TO VISIBILITY.

WYZ001-281600-
YELLOWSTONE NATIONAL PARK

CITY           SKY/WX    TMP DP  RH WIND       PRES   REMARKS
LK YELLOWSTONE   N/A     55  48  77 VRB3      30.41S
W YELLOWSTONE  NOT AVBL

$$
WYZ002>013-054>058-071-098>099-281600-
NORTHERN WYOMING

CITY           SKY/WX    TMP DP  RH WIND       PRES   REMARKS
JACKSON        SUNNY     61  39  44 CALM      30.32R
CODY           FAIR      64  52  63 SW8       30.27R
GREYBULL       FAIR      69  53  56 N7        30.19R
WORLAND        FAIR      66  55  67 VRB3      30.22R
SHERIDAN       FAIR      65  58  78 N13       30.22R
BUFFALO        FAIR      64  55  72 SW8       30.23S
GILLETTE       FAIR      63  59  87 W8        30.20R
HULETT         PTSUNNY   63  55  77 SW7       30.19R
NEWCASTLE      HVY RAIN  55  55 100 W10       30.28R

$$
WYZ014>020-022>026-101>103-281600-
CENTRAL WYOMING

CITY           SKY/WX    TMP DP  RH WIND       PRES   REMARKS
BIG PINEY      FAIR      64  33  31 E6        30.34R
PINEDALE       FAIR      63  32  31 E5        30.35S
DUBOIS           N/A     61  39  44 CALM      30.37R HAZE
LANDER         FAIR      68  51  54 SE3       30.27F
RIVERTON       FAIR      65  50  58 S7        30.28S
CASPER         PTSUNNY   66  54  65 E13       30.26S
DOUGLAS          N/A    N/A N/A N/A MISG      30.28S

$$
WYZ021-027>030-104>119-281600-
SOUTHERN WYOMING

CITY           SKY/WX    TMP DP  RH WIND       PRES   REMARKS
EVANSTON       FAIR      71  30  21 CALM      30.34R
KEMMERER         N/A     68  32  26 NW3       30.35R
FORT BRIDGER   FAIR      74  26  17 N3        30.35R
ROCK SPRINGS   FAIR      67  48  50 E12       30.32F
DIXON          FAIR      63  34  33 S3        30.33F
RAWLINS        FAIR      65  50  58 E6        30.32R
SARATOGA       FAIR      64  43  45 CALM      30.34S
LARAMIE        FAIR      64  50  60 N8        30.31S
CHEYENNE       FOG       58  57  97 E8        30.26F VSB 1/4
TORRINGTON     CLOUDY    64  55  72 SE12      30.19R
PINE BLUFFS    CLOUDY    63  57  82 E6        30.22F

$$




USA.gov is the U.S. government's official web portal to all federal, state and local government web resources and services.